Content
SEND FEEDBACK

Daily
Averages
Monthly
Summary
United States of America

BRAZIL, INDIANA


Home > North America > United States > Indiana
Elevation: 650 feet     Latitude: 39 31N     Longitude: 087 08W

WEATHER
 
SELECT A DAY
Number of Records: 204,155;   Date Range: 1/1/95 - 9/18/14
 
SHARE

PRINT THIS DATA

[ ← Previous Day ]
WEATHER ALMANAC - JANUARY 31, 2013
[ Next Day → ]
[ °C ]   °F
Weather ElementAverageHighLow
Temperature23.5 °F30 °F (3:53 pm)10.9 °F (11:53 pm)
Dewpoint14.6 °F23 °F (11:45 am)1 °F (10:53 pm)
Humidity69 %88 % (11:53 am)59 % (3:53 pm)
Barometer29.99 in30.25 in (11:53 pm)29.78 in (12:53 am)
Wind Speed16.6 mph23 mph (7:25 pm)
Wind Gust35.7 mph (9:32 pm)
Weather ElementAverage
Visibility7.2 mi
Wind DirectionWNW (277.3 °)

Weather ElementTotal
Precipitation---
Heating Degree Days44.6 (Base 65)
Averaged from 45 records on January 31, 2013
WEATHER CONDITIONS BREAKOUT
WIND DIRECTION BREAKOUT
WEATHER BY HOUR - JANUARY 31, 2013
[ °C ]   °F
Local TimeTemperatureDewpointHumidityBarometerVisibilityWind DirectionWind SpeedGust SpeedPrecipitationEventsConditions
12:53 AM27.0 °F16.0 °F63 %29.78 in9.0 miWest (280°)16.1 mph29.9 mph0.00 inSnowLight Snow
1:53 AM26.1 °F16.0 °F66 %29.81 in9.0 miWNW (290°)18.4 mph34.5 mph0.00 inSnowLight Snow
2:53 AM25.0 °F17.1 °F72 %29.83 in9.0 miWest (280°)18.4 mph25.3 mph0.00 inSnowLight Snow
3:53 AM25.0 °F14.0 °F63 %29.86 in9.0 miWest (270°)19.6 mph31.1 mph0.00 inSnowLight Snow
4:53 AM23.0 °F12.9 °F65 %29.88 in9.0 miWest (280°)19.6 mph33.4 mph0.00 inSnowLight Snow
5:53 AM23.0 °F14.0 °F68 %29.89 in10.0 miWest (270°)11.5 mph0.00 inOvercast
6:53 AM25.0 °F14.0 °F63 %29.89 in10.0 miWest (260°)10.4 mphOvercast
7:53 AM26.1 °F15.1 °F63 %29.90 in10.0 miWSW (250°)11.5 mphOvercast
8:53 AM27.0 °F16.0 °F63 %29.93 in9.0 miWSW (250°)17.3 mph27.6 mph0.00 inSnowLight Snow
9:53 AM27.0 °F15.1 °F61 %29.94 in9.0 miWSW (250°)16.1 mph24.2 mph0.00 inOvercast
10:53 AM28.0 °F17.1 °F63 %29.96 in10.0 miWSW (250°)15.0 mph23.0 mph0.00 inOvercast
11:35 AM26.6 °F19.4 °F74 %29.95 in1.8 miWSW (250°)18.4 mph25.3 mph0.00 inSnowLight Snow
11:45 AM26.6 °F23.0 °F86 %29.96 in1.0 miWest (260°)13.8 mph0.00 inSnowLight Snow
11:53 AM26.1 °F23.0 °F88 %29.99 in0.8 miWest (260°)13.8 mph19.6 mph0.00 inSnowLight Snow
12:10 PM26.6 °F23.0 °F86 %29.96 in2.0 miWSW (250°)13.8 mph0.00 inSnowLight Snow
12:17 PM26.6 °F21.2 °F80 %29.96 in4.0 miWest (260°)15.0 mph20.7 mph0.00 inSnowLight Snow
12:32 PM28.4 °F23.0 °F80 %29.96 in9.0 miWSW (250°)17.3 mph26.5 mph0.00 inSnowLight Snow
12:53 PM28.0 °F21.9 °F78 %29.97 in7.0 miWSW (240°)18.4 mph21.9 mph0.00 inSnowLight Snow
12:57 PM28.4 °F21.2 °F74 %29.96 in2.5 miWSW (240°)18.4 mph24.2 mph0.00 inSnowLight Snow
1:05 PM28.4 °F23.0 °F80 %29.96 in1.8 miWSW (250°)18.4 mph24.2 mph0.00 inSnowLight Snow
1:08 PM28.4 °F21.2 °F74 %29.96 in3.0 miWSW (250°)18.4 mph24.2 mph0.00 inSnowLight Snow
1:28 PM28.4 °F21.2 °F74 %29.95 in8.0 miWest (260°)12.7 mph23.0 mph0.00 inSnowLight Snow
1:53 PM28.9 °F18.0 °F64 %29.96 in9.0 miWest (270°)18.4 mph27.6 mph0.00 inSnowLight Snow
2:53 PM28.9 °F17.1 °F61 %29.95 in10.0 miWest (260°)13.8 mph23.0 mph0.00 inMostly Cloudy
3:53 PM30.0 °F17.1 °F59 %29.95 in9.0 miWest (270°)13.8 mph0.00 inOvercast
4:36 PM28.4 °F21.2 °F74 %29.94 in1.8 miWest (260°)12.7 mph19.6 mph0.00 inSnowLight Snow
4:50 PM26.6 °F21.2 °F80 %29.95 in0.8 miWest (280°)13.8 mph25.3 mph0.00 inSnowLight Snow
4:53 PM26.1 °F19.9 °F78 %29.98 in0.8 miWNW (290°)10.4 mph25.3 mph0.00 inSnowLight Snow
4:58 PM26.6 °F19.4 °F74 %29.95 in2.5 miWNW (290°)11.5 mph0.00 inSnowLight Snow
5:05 PM26.6 °F15.8 °F64 %29.95 in9.0 miWNW (300°)16.1 mph23.0 mph0.00 inOvercast
5:12 PM26.6 °F15.8 °F64 %29.96 in10.0 miWNW (300°)17.3 mph24.2 mph0.00 inSnowLight Snow
5:53 PM25.0 °F14.0 °F63 %30.00 in9.0 miNW (310°)13.8 mph21.9 mph0.00 inOvercast
6:53 PM21.0 °F10.9 °F65 %30.05 in9.0 miWNW (300°)17.3 mph33.4 mph0.00 inSnowLight Snow
7:18 PM19.4 °F8.6 °F63 %30.05 in9.0 miNW (320°)21.9 mph32.2 mph0.00 inSnowLight Snow
7:25 PM19.4 °F8.6 °F63 %30.04 in9.0 miNW (320°)23.0 mph33.4 mph0.00 inSnowLight Snow
7:40 PM17.6 °F8.6 °F68 %30.07 in9.0 miWNW (300°)17.3 mph31.1 mph0.00 inSnowLight Snow
7:53 PM17.1 °F8.1 °F68 %30.10 in9.0 miWNW (300°)21.9 mph31.1 mph0.00 inSnowLight Snow
8:31 PM15.8 °F5.0 °F62 %30.09 in9.0 miWNW (300°)20.7 mph28.8 mph0.00 inSnowLight Snow
8:53 PM14.0 °F3.9 °F64 %30.13 in9.0 miWNW (300°)20.7 mph34.5 mph0.00 inSnowLight Snow
9:19 PM14.0 °F5.0 °F67 %30.12 in9.0 miWNW (300°)16.1 mph27.6 mph0.00 inSnowLight Snow
9:32 PM12.2 °F1.4 °F62 %30.13 in9.0 miWNW (300°)18.4 mph35.7 mph0.00 inSnowLight Snow
9:53 PM12.9 °F1.9 °F62 %30.17 in9.0 miNW (310°)21.9 mph31.1 mph0.00 inSnowLight Snow
10:17 PM12.2 °F3.2 °F67 %30.16 in9.0 miWNW (290°)16.1 mph28.8 mph0.00 inSnowLight Snow
10:53 PM12.0 °F1.0 °F61 %30.22 in9.0 miNW (310°)23.0 mph32.2 mph0.00 inSnowLight Snow
11:53 PM10.9 °F1.9 °F67 %30.25 in9.0 miWNW (300°)16.1 mph25.3 mph0.00 inOvercast
Hourly data recorded from KHUF, located miles away from Brazil, Indiana







STORIES FROM OUR PARTNERS